Year,Month,Day,Hour,Minute,Value (Times are PST for temperature in C)
2011,08,07,00,00,13.80
2011,08,07,00,01,13.80
2011,08,07,00,02,13.70
2011,08,07,00,03,13.70
2011,08,07,00,04,13.70
2011,08,07,00,05,13.70
2011,08,07,00,06,13.70
2011,08,07,00,07,13.70
2011,08,07,00,08,13.70
2011,08,07,00,09,13.70
2011,08,07,00,10,13.70
2011,08,07,00,11,13.70
2011,08,07,00,12,13.60
2011,08,07,00,13,13.60
2011,08,07,00,14,13.60
2011,08,07,00,15,13.60
2011,08,07,00,16,13.60
2011,08,07,00,17,13.60
2011,08,07,00,18,13.60
2011,08,07,00,19,13.60
2011,08,07,00,20,13.60
2011,08,07,00,21,13.50
2011,08,07,00,22,13.50
2011,08,07,00,23,13.50
2011,08,07,00,24,13.50
2011,08,07,00,25,13.50
2011,08,07,00,26,13.50
2011,08,07,00,27,13.40
2011,08,07,00,28,13.40
2011,08,07,00,29,13.40
2011,08,07,00,30,13.40
2011,08,07,00,31,13.40
2011,08,07,00,32,13.30
2011,08,07,00,33,13.30
2011,08,07,00,34,13.30
2011,08,07,00,35,13.30
2011,08,07,00,36,13.30
2011,08,07,00,37,13.30
2011,08,07,00,38,13.30
2011,08,07,00,39,13.30
2011,08,07,00,40,13.30
2011,08,07,00,41,13.30
2011,08,07,00,42,13.30
2011,08,07,00,43,13.20
2011,08,07,00,44,13.20
2011,08,07,00,45,13.20
2011,08,07,00,46,13.20
2011,08,07,00,47,13.20
2011,08,07,00,48,13.10
2011,08,07,00,49,13.10
2011,08,07,00,50,13.10
2011,08,07,00,51,13.10
2011,08,07,00,52,13.10
2011,08,07,00,53,13.10
2011,08,07,00,54,13.10
2011,08,07,00,55,13.10
2011,08,07,00,56,13.10
2011,08,07,00,57,13.10
2011,08,07,00,58,13.10
2011,08,07,00,59,13.10
2011,08,07,01,00,13.00
2011,08,07,01,01,13.00
2011,08,07,01,02,13.00
2011,08,07,01,03,13.00
2011,08,07,01,04,13.00
2011,08,07,01,05,13.00
2011,08,07,01,06,13.00
2011,08,07,01,07,12.90
2011,08,07,01,08,12.90
2011,08,07,01,09,12.90
2011,08,07,01,10,12.90
2011,08,07,01,11,12.90
2011,08,07,01,12,12.90
2011,08,07,01,13,12.90
2011,08,07,01,14,12.90
2011,08,07,01,15,12.90
2011,08,07,01,16,12.90
2011,08,07,01,17,12.90
2011,08,07,01,18,12.90
2011,08,07,01,19,12.90
2011,08,07,01,20,12.90
2011,08,07,01,21,12.90
2011,08,07,01,22,12.90
2011,08,07,01,23,12.80
2011,08,07,01,24,12.80
2011,08,07,01,25,12.80
2011,08,07,01,26,12.80
2011,08,07,01,27,12.80
2011,08,07,01,28,12.80
2011,08,07,01,29,12.80
2011,08,07,01,30,12.80
2011,08,07,01,31,12.80
2011,08,07,01,32,12.70
2011,08,07,01,33,12.70
2011,08,07,01,34,12.70
2011,08,07,01,35,12.70
2011,08,07,01,36,12.70
2011,08,07,01,37,12.60
2011,08,07,01,38,12.60
2011,08,07,01,39,12.60
2011,08,07,01,40,12.60
2011,08,07,01,41,12.50
2011,08,07,01,42,12.50
2011,08,07,01,43,12.50
2011,08,07,01,44,12.50
2011,08,07,01,45,12.50
2011,08,07,01,46,12.50
2011,08,07,01,47,12.50
2011,08,07,01,48,12.50
2011,08,07,01,49,12.50
2011,08,07,01,50,12.40
2011,08,07,01,51,12.40
2011,08,07,01,52,12.40
2011,08,07,01,53,12.40
2011,08,07,01,54,12.40
2011,08,07,01,55,12.40
2011,08,07,01,56,12.40
2011,08,07,01,57,12.40
2011,08,07,01,58,12.40
2011,08,07,01,59,12.40
2011,08,07,02,00,12.40
2011,08,07,02,01,12.40
2011,08,07,02,02,12.40
2011,08,07,02,03,12.40
2011,08,07,02,04,12.40
2011,08,07,02,05,12.40
2011,08,07,02,06,12.30
2011,08,07,02,07,12.30
2011,08,07,02,08,12.30
2011,08,07,02,09,12.30
2011,08,07,02,10,12.30
2011,08,07,02,11,12.30
2011,08,07,02,12,12.30
2011,08,07,02,13,12.30
2011,08,07,02,14,12.30
2011,08,07,02,15,12.30
2011,08,07,02,16,12.30
2011,08,07,02,17,12.30
2011,08,07,02,18,12.30
2011,08,07,02,19,12.30
2011,08,07,02,20,12.30
2011,08,07,02,21,12.30
2011,08,07,02,22,12.30
2011,08,07,02,23,12.30
2011,08,07,02,24,12.30
2011,08,07,02,25,12.30
2011,08,07,02,26,12.30
2011,08,07,02,27,12.30
2011,08,07,02,28,12.30
2011,08,07,02,29,12.30
2011,08,07,02,30,12.30
2011,08,07,02,31,12.30
2011,08,07,02,32,12.30
2011,08,07,02,33,12.30
2011,08,07,02,34,12.30
2011,08,07,02,35,12.30
2011,08,07,02,36,12.20
2011,08,07,02,37,12.20
2011,08,07,02,38,12.20
2011,08,07,02,39,12.20
2011,08,07,02,40,12.20
2011,08,07,02,41,12.20
2011,08,07,02,42,12.20
2011,08,07,02,43,12.20
2011,08,07,02,44,12.20
2011,08,07,02,45,12.20
2011,08,07,02,46,12.20
2011,08,07,02,47,12.20
2011,08,07,02,48,12.10
2011,08,07,02,49,12.10
2011,08,07,02,50,12.10
2011,08,07,02,51,12.10
2011,08,07,02,52,12.10
2011,08,07,02,53,12.10
2011,08,07,02,54,12.10
2011,08,07,02,55,12.10
2011,08,07,02,56,12.10
2011,08,07,02,57,12.10
2011,08,07,02,58,12.10
2011,08,07,02,59,12.10
2011,08,07,03,00,12.10
2011,08,07,03,01,12.10
2011,08,07,03,02,12.10
2011,08,07,03,03,12.10
2011,08,07,03,04,12.10
2011,08,07,03,05,12.10
2011,08,07,03,06,12.10
2011,08,07,03,07,12.10
2011,08,07,03,08,12.10
2011,08,07,03,09,12.10
2011,08,07,03,10,12.00
2011,08,07,03,11,12.00
2011,08,07,03,12,12.00
2011,08,07,03,13,12.00
2011,08,07,03,14,12.00
2011,08,07,03,15,12.00
2011,08,07,03,16,11.90
2011,08,07,03,17,11.90
2011,08,07,03,18,11.90
2011,08,07,03,19,11.90
2011,08,07,03,20,11.90
2011,08,07,03,21,11.90
2011,08,07,03,22,11.90
2011,08,07,03,23,11.90
2011,08,07,03,24,11.90
2011,08,07,03,25,11.90
2011,08,07,03,26,11.90
2011,08,07,03,27,11.90
2011,08,07,03,28,11.90
2011,08,07,03,29,11.90
2011,08,07,03,30,11.90
2011,08,07,03,31,11.90
2011,08,07,03,32,11.90
2011,08,07,03,33,11.90
2011,08,07,03,34,11.90
2011,08,07,03,35,11.90
2011,08,07,03,36,11.80
2011,08,07,03,37,11.80
2011,08,07,03,38,11.80
2011,08,07,03,39,11.80
2011,08,07,03,40,11.80
2011,08,07,03,41,11.80
2011,08,07,03,42,11.80
2011,08,07,03,43,11.80
2011,08,07,03,44,11.80
2011,08,07,03,45,11.80
2011,08,07,03,46,11.80
2011,08,07,03,47,11.80
2011,08,07,03,48,11.80
2011,08,07,03,49,11.80
2011,08,07,03,50,11.80
2011,08,07,03,51,11.80
2011,08,07,03,52,11.70
2011,08,07,03,53,11.70
2011,08,07,03,54,11.70
2011,08,07,03,55,11.60
2011,08,07,03,56,11.60
2011,08,07,03,57,11.60
2011,08,07,03,58,11.60
2011,08,07,03,59,11.60
2011,08,07,04,00,11.60
2011,08,07,04,01,11.60
2011,08,07,04,02,11.60
2011,08,07,04,03,11.60
2011,08,07,04,04,11.60
2011,08,07,04,05,11.60
2011,08,07,04,06,11.60
2011,08,07,04,07,11.60
2011,08,07,04,08,11.60
2011,08,07,04,09,11.40
2011,08,07,04,10,11.40
2011,08,07,04,11,11.40
2011,08,07,04,12,11.40
2011,08,07,04,13,11.40
2011,08,07,04,14,11.40
2011,08,07,04,15,11.40
2011,08,07,04,16,11.40
2011,08,07,04,17,11.40
2011,08,07,04,18,11.40
2011,08,07,04,19,11.40
2011,08,07,04,20,11.40
2011,08,07,04,21,11.40
2011,08,07,04,22,11.40
2011,08,07,04,23,11.40
2011,08,07,04,24,11.40
2011,08,07,04,25,11.40
2011,08,07,04,26,11.40
2011,08,07,04,27,11.40
2011,08,07,04,28,11.40
2011,08,07,04,29,11.40
2011,08,07,04,30,11.40
2011,08,07,04,31,11.40
2011,08,07,04,32,11.30
2011,08,07,04,33,11.30
2011,08,07,04,34,11.30
2011,08,07,04,35,11.30
2011,08,07,04,36,11.20
2011,08,07,04,37,11.20
2011,08,07,04,38,11.20
2011,08,07,04,39,11.20
2011,08,07,04,40,11.20
2011,08,07,04,41,11.20
2011,08,07,04,42,11.20
2011,08,07,04,43,11.10
2011,08,07,04,44,11.10
2011,08,07,04,45,11.10
2011,08,07,04,46,11.10
2011,08,07,04,47,11.10
2011,08,07,04,48,11.10
2011,08,07,04,49,11.10
2011,08,07,04,50,11.10
2011,08,07,04,51,11.10
2011,08,07,04,52,11.10
2011,08,07,04,53,11.10
2011,08,07,04,54,11.10
2011,08,07,04,55,11.10
2011,08,07,04,56,11.10
2011,08,07,04,57,11.10
2011,08,07,04,58,11.10
2011,08,07,04,59,11.10
2011,08,07,05,00,11.10
2011,08,07,05,01,11.10
2011,08,07,05,02,11.10
2011,08,07,05,03,11.10
2011,08,07,05,04,11.10
2011,08,07,05,05,11.10
2011,08,07,05,06,11.10
2011,08,07,05,07,11.00
2011,08,07,05,08,10.90
2011,08,07,05,09,10.90
2011,08,07,05,10,10.90
2011,08,07,05,11,10.90
2011,08,07,05,12,10.90
2011,08,07,05,13,10.90
2011,08,07,05,14,10.90
2011,08,07,05,15,10.90
2011,08,07,05,16,10.80
2011,08,07,05,17,10.80
2011,08,07,05,18,10.80
2011,08,07,05,19,10.80
2011,08,07,05,20,10.70
2011,08,07,05,21,10.70
2011,08,07,05,22,10.70
2011,08,07,05,23,10.70
2011,08,07,05,24,10.70
2011,08,07,05,25,10.70
2011,08,07,05,26,10.60
2011,08,07,05,27,10.60
2011,08,07,05,28,10.60
2011,08,07,05,29,10.60
2011,08,07,05,30,10.60
2011,08,07,05,31,10.60
2011,08,07,05,32,10.60
2011,08,07,05,33,10.60
2011,08,07,05,34,10.60
2011,08,07,05,35,10.60
2011,08,07,05,36,10.60
2011,08,07,05,37,10.60
2011,08,07,05,38,10.60
2011,08,07,05,39,10.60
2011,08,07,05,40,10.50
2011,08,07,05,41,10.40
2011,08,07,05,42,10.40
2011,08,07,05,43,10.40
2011,08,07,05,44,10.40
2011,08,07,05,45,10.40
2011,08,07,05,46,10.40
2011,08,07,05,47,10.40
2011,08,07,05,48,10.40
2011,08,07,05,49,10.40
2011,08,07,05,50,10.40
2011,08,07,05,51,10.40
2011,08,07,05,52,10.40
2011,08,07,05,53,10.40
2011,08,07,05,54,10.40
2011,08,07,05,55,10.40
2011,08,07,05,56,10.40
2011,08,07,05,57,10.40
2011,08,07,05,58,10.40
2011,08,07,05,59,10.40
2011,08,07,06,00,10.40
2011,08,07,06,01,10.40
2011,08,07,06,02,10.40
2011,08,07,06,03,10.40
2011,08,07,06,04,10.40
2011,08,07,06,05,10.40
2011,08,07,06,06,10.40
2011,08,07,06,07,10.40
2011,08,07,06,08,10.40
2011,08,07,06,09,10.40
2011,08,07,06,10,10.40
2011,08,07,06,11,10.40
2011,08,07,06,12,10.40
2011,08,07,06,13,10.40
2011,08,07,06,14,10.40
2011,08,07,06,15,10.40
2011,08,07,06,16,10.40
2011,08,07,06,17,10.40
2011,08,07,06,18,10.40
2011,08,07,06,19,10.40
2011,08,07,06,20,10.40
2011,08,07,06,21,10.40
2011,08,07,06,22,10.40
2011,08,07,06,23,10.40
2011,08,07,06,24,10.40
2011,08,07,06,25,10.40
2011,08,07,06,26,10.40
2011,08,07,06,27,10.40
2011,08,07,06,28,10.40
2011,08,07,06,29,10.40
2011,08,07,06,30,10.40
2011,08,07,06,31,10.40
2011,08,07,06,32,10.40
2011,08,07,06,33,10.40
2011,08,07,06,34,10.40
2011,08,07,06,35,10.40
2011,08,07,06,36,10.40
2011,08,07,06,37,10.40
2011,08,07,06,38,10.40
2011,08,07,06,39,10.40
2011,08,07,06,40,10.40
2011,08,07,06,41,10.40
2011,08,07,06,42,10.40
2011,08,07,06,43,10.40
2011,08,07,06,44,10.50
2011,08,07,06,45,10.60
2011,08,07,06,46,10.60
2011,08,07,06,47,10.60
2011,08,07,06,48,10.60
2011,08,07,06,49,10.60
2011,08,07,06,50,10.60
2011,08,07,06,51,10.60
2011,08,07,06,52,10.60
2011,08,07,06,53,10.60
2011,08,07,06,54,10.60
2011,08,07,06,55,10.60
2011,08,07,06,56,10.60
2011,08,07,06,57,10.60
2011,08,07,06,58,10.60
2011,08,07,06,59,10.60
2011,08,07,07,00,10.70
2011,08,07,07,01,10.70
2011,08,07,07,02,10.70
2011,08,07,07,03,10.70
2011,08,07,07,04,10.70
2011,08,07,07,05,10.70
2011,08,07,07,06,10.80
2011,08,07,07,07,10.80
2011,08,07,07,08,10.80
2011,08,07,07,09,10.90
2011,08,07,07,10,10.90
2011,08,07,07,11,10.90
2011,08,07,07,12,10.90
2011,08,07,07,13,10.90
2011,08,07,07,14,10.90
2011,08,07,07,15,11.00
2011,08,07,07,16,11.10
2011,08,07,07,17,11.10
2011,08,07,07,18,11.20
2011,08,07,07,19,11.20
2011,08,07,07,20,11.30
2011,08,07,07,21,11.40
2011,08,07,07,22,11.40
2011,08,07,07,23,11.50
2011,08,07,07,24,11.60
2011,08,07,07,25,11.60
2011,08,07,07,26,11.60
2011,08,07,07,27,11.70
2011,08,07,07,28,11.80
2011,08,07,07,29,11.80
2011,08,07,07,30,11.90
2011,08,07,07,31,12.00
2011,08,07,07,32,12.10
2011,08,07,07,33,12.20
2011,08,07,07,34,12.30
2011,08,07,07,35,12.30
2011,08,07,07,36,12.50
2011,08,07,07,37,12.60
2011,08,07,07,38,12.60
2011,08,07,07,39,12.70
2011,08,07,07,40,12.80
2011,08,07,07,41,12.90
2011,08,07,07,42,13.00
2011,08,07,07,43,13.10
2011,08,07,07,44,13.20
2011,08,07,07,45,13.30
2011,08,07,07,46,13.40
2011,08,07,07,47,13.50
2011,08,07,07,48,13.60
2011,08,07,07,49,13.60
2011,08,07,07,50,13.70
2011,08,07,07,51,13.80
2011,08,07,07,52,13.90
2011,08,07,07,53,14.00
2011,08,07,07,54,14.10
2011,08,07,07,55,14.20
2011,08,07,07,56,14.20
2011,08,07,07,57,14.30
2011,08,07,07,58,14.40
2011,08,07,07,59,14.50
2011,08,07,08,00,14.60
2011,08,07,08,01,14.70
2011,08,07,08,02,14.70
2011,08,07,08,03,14.80
2011,08,07,08,04,14.80
2011,08,07,08,05,14.80
2011,08,07,08,06,14.80
2011,08,07,08,07,14.80
2011,08,07,08,08,14.80
2011,08,07,08,09,14.80
2011,08,07,08,10,14.80
2011,08,07,08,11,14.90
2011,08,07,08,12,15.50
2011,08,07,08,13,15.60
2011,08,07,08,14,15.60
2011,08,07,08,15,15.70
2011,08,07,08,16,15.80
2011,08,07,08,17,15.80
2011,08,07,08,18,16.00
2011,08,07,08,19,16.10
2011,08,07,08,20,16.20
2011,08,07,08,21,16.30
2011,08,07,08,22,16.40
2011,08,07,08,23,16.50
2011,08,07,08,24,16.60
2011,08,07,08,25,16.70
2011,08,07,08,26,16.90
2011,08,07,08,27,16.90
2011,08,07,08,28,17.00
2011,08,07,08,29,17.10
2011,08,07,08,30,17.30
2011,08,07,08,31,17.30
2011,08,07,08,32,17.50
2011,08,07,08,33,17.60
2011,08,07,08,34,17.70
2011,08,07,08,35,17.80
2011,08,07,08,36,17.90
2011,08,07,08,37,18.00
2011,08,07,08,38,18.20
2011,08,07,08,39,18.20
2011,08,07,08,40,18.30
2011,08,07,08,41,18.30
2011,08,07,08,42,18.30
2011,08,07,08,43,18.30
2011,08,07,08,44,18.30
2011,08,07,08,45,18.40
2011,08,07,08,46,18.40
2011,08,07,08,47,18.40
2011,08,07,08,48,18.50
2011,08,07,08,49,18.50
2011,08,07,08,50,18.60
2011,08,07,08,51,18.70
2011,08,07,08,52,18.80
2011,08,07,08,53,18.80
2011,08,07,08,54,18.90
2011,08,07,08,55,18.90
2011,08,07,08,56,19.00
2011,08,07,08,57,19.10
2011,08,07,08,58,19.00
2011,08,07,08,59,18.90
2011,08,07,09,00,18.90
2011,08,07,09,01,18.80
2011,08,07,09,02,18.80
2011,08,07,09,03,18.70
2011,08,07,09,04,18.70
2011,08,07,09,05,18.80
2011,08,07,09,06,18.70
2011,08,07,09,07,18.80
2011,08,07,09,08,18.80
2011,08,07,09,09,18.80
2011,08,07,09,10,18.90
2011,08,07,09,11,18.90
2011,08,07,09,12,18.90
2011,08,07,09,13,18.80
2011,08,07,09,14,18.80
2011,08,07,09,15,18.80
2011,08,07,09,16,18.90
2011,08,07,09,17,19.00
2011,08,07,09,18,19.10
2011,08,07,09,19,19.20
2011,08,07,09,20,19.30
2011,08,07,09,21,19.40
2011,08,07,09,22,19.40
2011,08,07,09,23,19.50
2011,08,07,09,24,19.50
2011,08,07,09,25,19.50
2011,08,07,09,26,19.60
2011,08,07,09,27,19.70
2011,08,07,09,28,19.80
2011,08,07,09,29,19.80
2011,08,07,09,30,19.90
2011,08,07,09,31,19.90
2011,08,07,09,32,19.90
2011,08,07,09,33,20.00
2011,08,07,09,34,20.20
2011,08,07,09,35,20.20
2011,08,07,09,36,20.20
2011,08,07,09,37,20.20
2011,08,07,09,38,20.30
2011,08,07,09,39,20.30
2011,08,07,09,40,20.30
2011,08,07,09,41,20.40
2011,08,07,09,42,20.50
2011,08,07,09,43,20.60
2011,08,07,09,44,20.70
2011,08,07,09,45,20.80
2011,08,07,09,46,21.00
2011,08,07,09,47,21.00
2011,08,07,09,48,21.10
2011,08,07,09,49,21.20
2011,08,07,09,50,21.30
2011,08,07,09,51,21.20
2011,08,07,09,52,21.10
2011,08,07,09,53,20.90
2011,08,07,09,54,20.70
2011,08,07,09,55,20.50
2011,08,07,09,56,20.30
2011,08,07,09,57,20.20
2011,08,07,09,58,20.20
2011,08,07,09,59,20.20
2011,08,07,10,00,20.20
2011,08,07,10,01,20.20
2011,08,07,10,02,20.30
2011,08,07,10,03,20.50
2011,08,07,10,04,20.50
2011,08,07,10,05,20.70
2011,08,07,10,06,20.80
2011,08,07,10,07,20.90
2011,08,07,10,08,21.10
2011,08,07,10,09,21.20
2011,08,07,10,10,21.30
2011,08,07,10,11,21.30
2011,08,07,10,12,21.30
2011,08,07,10,13,21.30
2011,08,07,10,14,21.30
2011,08,07,10,15,21.30
2011,08,07,10,16,21.40
2011,08,07,10,17,21.40
2011,08,07,10,18,21.40
2011,08,07,10,19,21.50
2011,08,07,10,20,21.60
2011,08,07,10,21,21.50
2011,08,07,10,22,21.30
2011,08,07,10,23,21.30
2011,08,07,10,24,21.30
2011,08,07,10,25,21.20
2011,08,07,10,26,21.20
2011,08,07,10,27,21.20
2011,08,07,10,28,21.10
2011,08,07,10,29,21.00
2011,08,07,10,30,21.00
2011,08,07,10,31,20.90
2011,08,07,10,32,20.90
2011,08,07,10,33,20.90
2011,08,07,10,34,20.90
2011,08,07,10,35,20.90
2011,08,07,10,36,20.80
2011,08,07,10,37,20.70
2011,08,07,10,38,20.50
2011,08,07,10,39,20.40
2011,08,07,10,40,20.50
2011,08,07,10,41,20.50
2011,08,07,10,42,20.50
2011,08,07,10,43,20.30
2011,08,07,10,44,20.20
2011,08,07,10,45,20.20
2011,08,07,10,46,20.30
2011,08,07,10,47,20.40
2011,08,07,10,48,20.50
2011,08,07,10,49,20.50
2011,08,07,10,50,20.50
2011,08,07,10,51,20.50
2011,08,07,10,52,20.50
2011,08,07,10,53,20.50
2011,08,07,10,54,20.60
2011,08,07,10,55,20.60
2011,08,07,10,56,20.60
2011,08,07,10,57,20.60
2011,08,07,10,58,20.70
2011,08,07,10,59,20.80
2011,08,07,11,00,20.90
2011,08,07,11,01,21.00
2011,08,07,11,02,21.00
2011,08,07,11,03,21.00
2011,08,07,11,04,21.00
2011,08,07,11,05,21.00
2011,08,07,11,06,20.80
2011,08,07,11,07,20.70
2011,08,07,11,08,20.80
2011,08,07,11,09,20.80
2011,08,07,11,10,20.90
2011,08,07,11,11,21.00
2011,08,07,11,12,21.10
2011,08,07,11,13,21.10
2011,08,07,11,14,21.10
2011,08,07,11,15,21.10
2011,08,07,11,16,21.20
2011,08,07,11,17,21.30
2011,08,07,11,18,21.30
2011,08,07,11,19,21.30
2011,08,07,11,20,21.30
2011,08,07,11,21,21.30
2011,08,07,11,22,21.30
2011,08,07,11,23,21.30
2011,08,07,11,24,21.30
2011,08,07,11,25,21.30
2011,08,07,11,26,21.30
2011,08,07,11,27,21.30
2011,08,07,11,28,21.20
2011,08,07,11,29,21.10
2011,08,07,11,30,21.00
2011,08,07,11,31,20.90
2011,08,07,11,32,20.80
2011,08,07,11,33,20.60
2011,08,07,11,34,20.60
2011,08,07,11,35,20.70
2011,08,07,11,36,20.80
2011,08,07,11,37,20.80
2011,08,07,11,38,20.90
2011,08,07,11,39,20.90
2011,08,07,11,40,20.90
2011,08,07,11,41,20.90
2011,08,07,11,42,21.00
2011,08,07,11,43,21.00
2011,08,07,11,44,21.10
2011,08,07,11,45,21.20
2011,08,07,11,46,21.20
2011,08,07,11,47,21.20
2011,08,07,11,48,21.30
2011,08,07,11,49,21.30
2011,08,07,11,50,21.50
2011,08,07,11,51,21.60
2011,08,07,11,52,21.70
2011,08,07,11,53,21.80
2011,08,07,11,54,21.80
2011,08,07,11,55,21.90
2011,08,07,11,56,21.90
2011,08,07,11,57,22.00
2011,08,07,11,58,22.00
2011,08,07,11,59,22.00
2011,08,07,12,00,22.10
2011,08,07,12,01,22.10
2011,08,07,12,02,22.20
2011,08,07,12,03,22.20
2011,08,07,12,04,22.20
2011,08,07,12,05,22.10
2011,08,07,12,06,22.10
2011,08,07,12,07,22.00
2011,08,07,12,08,22.10
2011,08,07,12,09,22.10
2011,08,07,12,10,22.10
2011,08,07,12,11,22.00
2011,08,07,12,12,22.00
2011,08,07,12,13,21.90
2011,08,07,12,14,21.90
2011,08,07,12,15,21.80
2011,08,07,12,16,21.80
2011,08,07,12,17,21.70
2011,08,07,12,18,21.50
2011,08,07,12,19,21.40
2011,08,07,12,20,21.30
2011,08,07,12,21,21.40
2011,08,07,12,22,21.60
2011,08,07,12,23,21.70
2011,08,07,12,24,21.90
2011,08,07,12,25,21.90
2011,08,07,12,26,22.00
2011,08,07,12,27,22.10
2011,08,07,12,28,22.20
2011,08,07,12,29,22.30
2011,08,07,12,30,22.40
2011,08,07,12,31,22.20
2011,08,07,12,32,22.10
2011,08,07,12,33,21.90
2011,08,07,12,34,21.60
2011,08,07,12,35,21.50
2011,08,07,12,36,21.30
2011,08,07,12,37,21.30
2011,08,07,12,38,21.20
2011,08,07,12,39,21.20
2011,08,07,12,40,21.20
2011,08,07,12,41,21.30
2011,08,07,12,42,21.40
2011,08,07,12,43,21.50
2011,08,07,12,44,21.50
2011,08,07,12,45,21.50
2011,08,07,12,46,21.60
2011,08,07,12,47,21.60
2011,08,07,12,48,21.80
2011,08,07,12,49,21.90
2011,08,07,12,50,22.00
2011,08,07,12,51,22.10
2011,08,07,12,52,22.20
2011,08,07,12,53,22.30
2011,08,07,12,54,22.40
2011,08,07,12,55,22.50
2011,08,07,12,56,22.50
2011,08,07,12,57,22.50
2011,08,07,12,58,22.20
2011,08,07,12,59,21.90
2011,08,07,13,00,21.60
2011,08,07,13,01,21.40
2011,08,07,13,02,21.30
2011,08,07,13,03,21.40
2011,08,07,13,04,21.50
2011,08,07,13,05,21.60
2011,08,07,13,06,21.70
2011,08,07,13,07,21.70
2011,08,07,13,08,21.70
2011,08,07,13,09,21.70
2011,08,07,13,10,21.60
2011,08,07,13,11,21.60
2011,08,07,13,12,21.50
2011,08,07,13,13,21.60
2011,08,07,13,14,21.60
2011,08,07,13,15,21.50
2011,08,07,13,16,21.40
2011,08,07,13,17,21.30
2011,08,07,13,18,21.20
2011,08,07,13,19,21.20
2011,08,07,13,20,21.20
2011,08,07,13,21,21.10
2011,08,07,13,22,21.10
2011,08,07,13,23,21.10
2011,08,07,13,24,21.10
2011,08,07,13,25,21.20
2011,08,07,13,26,21.20
2011,08,07,13,27,21.20
2011,08,07,13,28,21.30
2011,08,07,13,29,21.30
2011,08,07,13,30,21.20
2011,08,07,13,31,21.20
2011,08,07,13,32,21.20
2011,08,07,13,33,21.20
2011,08,07,13,34,21.30
2011,08,07,13,35,21.30
2011,08,07,13,36,21.30
2011,08,07,13,37,21.20
2011,08,07,13,38,21.20
2011,08,07,13,39,21.20
2011,08,07,13,40,21.20
2011,08,07,13,41,21.30
2011,08,07,13,42,21.50
2011,08,07,13,43,21.60
2011,08,07,13,44,21.60
2011,08,07,13,45,21.60
2011,08,07,13,46,21.40
2011,08,07,13,47,21.30
2011,08,07,13,48,21.20
2011,08,07,13,49,21.10
2011,08,07,13,50,21.10
2011,08,07,13,51,21.00
2011,08,07,13,52,20.90
2011,08,07,13,53,20.90
2011,08,07,13,54,20.80
2011,08,07,13,55,20.80
2011,08,07,13,56,20.90
2011,08,07,13,57,20.90
2011,08,07,13,58,20.90
2011,08,07,13,59,21.00
2011,08,07,14,00,21.00
2011,08,07,14,01,20.90
2011,08,07,14,02,21.00
2011,08,07,14,03,21.00
2011,08,07,14,04,21.10
2011,08,07,14,05,21.20
2011,08,07,14,06,21.40
2011,08,07,14,07,21.50
2011,08,07,14,08,21.60
2011,08,07,14,09,21.60
2011,08,07,14,10,21.50
2011,08,07,14,11,21.40
2011,08,07,14,12,21.40
2011,08,07,14,13,21.50
2011,08,07,14,14,21.60
2011,08,07,14,15,21.60
2011,08,07,14,16,21.60
2011,08,07,14,17,21.60
2011,08,07,14,18,21.60
2011,08,07,14,19,21.40
2011,08,07,14,20,21.20
2011,08,07,14,21,21.10
2011,08,07,14,22,21.10
2011,08,07,14,23,21.20
2011,08,07,14,24,21.30
2011,08,07,14,25,21.30
2011,08,07,14,26,21.40
2011,08,07,14,27,21.40
2011,08,07,14,28,21.40
2011,08,07,14,29,21.30
2011,08,07,14,30,21.30
2011,08,07,14,31,21.40
2011,08,07,14,32,21.40
2011,08,07,14,33,21.40
2011,08,07,14,34,21.40
2011,08,07,14,35,21.50
2011,08,07,14,36,21.60
2011,08,07,14,37,21.60
2011,08,07,14,38,21.60
2011,08,07,14,39,21.50
2011,08,07,14,40,21.40
2011,08,07,14,41,21.50
2011,08,07,14,42,21.60
2011,08,07,14,43,21.60
2011,08,07,14,44,21.60
2011,08,07,14,45,21.60
2011,08,07,14,46,21.60
2011,08,07,14,47,21.70
2011,08,07,14,48,21.80
2011,08,07,14,49,21.80
2011,08,07,14,50,21.80
2011,08,07,14,51,21.70
2011,08,07,14,52,21.40
2011,08,07,14,53,21.30
2011,08,07,14,54,21.40
2011,08,07,14,55,21.50
2011,08,07,14,56,21.70
2011,08,07,14,57,21.70
2011,08,07,14,58,21.80
2011,08,07,14,59,21.80
2011,08,07,15,00,21.90
2011,08,07,15,01,21.90
2011,08,07,15,02,21.80
2011,08,07,15,03,21.70
2011,08,07,15,04,21.50
2011,08,07,15,05,21.30
2011,08,07,15,06,21.10
2011,08,07,15,07,21.00
2011,08,07,15,08,20.90
2011,08,07,15,09,20.80
2011,08,07,15,10,20.80
2011,08,07,15,11,20.80
2011,08,07,15,12,20.90
2011,08,07,15,13,21.00
2011,08,07,15,14,21.00
2011,08,07,15,15,21.30
2011,08,07,15,16,21.30
2011,08,07,15,17,21.30
2011,08,07,15,18,21.40
2011,08,07,15,19,21.30
2011,08,07,15,20,21.30
2011,08,07,15,21,21.30
2011,08,07,15,22,21.40
2011,08,07,15,23,21.40
2011,08,07,15,24,21.60
2011,08,07,15,25,21.60
2011,08,07,15,26,21.60
2011,08,07,15,27,21.60
2011,08,07,15,28,21.80
2011,08,07,15,29,21.80
2011,08,07,15,30,21.80
2011,08,07,15,31,21.70
2011,08,07,15,32,21.60
2011,08,07,15,33,21.60
2011,08,07,15,34,21.60
2011,08,07,15,35,21.70
2011,08,07,15,36,21.80
2011,08,07,15,37,21.80
2011,08,07,15,38,21.70
2011,08,07,15,39,21.60
2011,08,07,15,40,21.60
2011,08,07,15,41,21.70
2011,08,07,15,42,21.90
2011,08,07,15,43,22.00
2011,08,07,15,44,21.90
2011,08,07,15,45,21.80
2011,08,07,15,46,21.80
2011,08,07,15,47,21.80
2011,08,07,15,48,21.90
2011,08,07,15,49,21.90
2011,08,07,15,50,22.00
2011,08,07,15,51,21.80
2011,08,07,15,52,21.80
2011,08,07,15,53,21.80
2011,08,07,15,54,21.80
2011,08,07,15,55,21.80
2011,08,07,15,56,21.90
2011,08,07,15,57,22.00
2011,08,07,15,58,22.10
2011,08,07,15,59,22.20
2011,08,07,16,00,22.20
2011,08,07,16,01,22.20
2011,08,07,16,02,22.20
2011,08,07,16,03,22.20
2011,08,07,16,04,22.20
2011,08,07,16,05,22.20
2011,08,07,16,06,22.30
2011,08,07,16,07,22.40
2011,08,07,16,08,22.40
2011,08,07,16,09,22.50
2011,08,07,16,10,22.50
2011,08,07,16,11,22.40
2011,08,07,16,12,22.40
2011,08,07,16,13,22.40
2011,08,07,16,14,22.50
2011,08,07,16,15,22.50
2011,08,07,16,16,22.60
2011,08,07,16,17,22.60
2011,08,07,16,18,22.60
2011,08,07,16,19,22.70
2011,08,07,16,20,22.70
2011,08,07,16,21,22.80
2011,08,07,16,22,22.80
2011,08,07,16,23,22.90
2011,08,07,16,24,22.90
2011,08,07,16,25,22.90
2011,08,07,16,26,22.90
2011,08,07,16,27,22.90
2011,08,07,16,28,23.00
2011,08,07,16,29,23.00
2011,08,07,16,30,22.90
2011,08,07,16,31,22.90
2011,08,07,16,32,23.00
2011,08,07,16,33,23.10
2011,08,07,16,34,23.20
2011,08,07,16,35,23.30
2011,08,07,16,36,23.30
2011,08,07,16,37,23.30
2011,08,07,16,38,23.30
2011,08,07,16,39,23.30
2011,08,07,16,40,23.40
2011,08,07,16,41,23.40
2011,08,07,16,42,23.40
2011,08,07,16,43,23.40
2011,08,07,16,44,23.40
2011,08,07,16,45,23.30
2011,08,07,16,46,23.30
2011,08,07,16,47,23.40
2011,08,07,16,48,23.40
2011,08,07,16,49,23.40
2011,08,07,16,50,23.40
2011,08,07,16,51,23.40
2011,08,07,16,52,23.40
2011,08,07,16,53,23.40
2011,08,07,16,54,23.40
2011,08,07,16,55,23.40
2011,08,07,16,56,23.40
2011,08,07,16,57,23.40
2011,08,07,16,58,23.40
2011,08,07,16,59,23.40
2011,08,07,17,00,23.40
2011,08,07,17,01,23.40
2011,08,07,17,02,23.40
2011,08,07,17,03,23.30
2011,08,07,17,04,23.30
2011,08,07,17,05,23.40
2011,08,07,17,06,23.50
2011,08,07,17,07,23.60
2011,08,07,17,08,23.60
2011,08,07,17,09,23.60
2011,08,07,17,10,23.50
2011,08,07,17,11,23.40
2011,08,07,17,12,23.40
2011,08,07,17,13,23.30
2011,08,07,17,14,23.30
2011,08,07,17,15,23.20
2011,08,07,17,16,23.10
2011,08,07,17,17,23.10
2011,08,07,17,18,23.00
2011,08,07,17,19,22.90